Hourly Data Report for October 03, 2017

All times are specified in Local Standard Time (LST). Add 1 hour to adjust for Daylight Saving Time where and when it is observed.

TIMMINS A
ONTARIO

48°34'14.000" N
81°22'36.000" W
294.70 m
6078286
71739
YTS

Download Data

Hourly Data (October 2017)
Hourly Data Report for October 3, 2017
Temp Definition
°C
Dew Point Temp Definition
°C
Rel Hum Definition
%
Wind Dir Definition
10's deg

Wind Spd Definition
km/h
Visibility Definition
km
Stn Press Definition
kPa
Hmdx Definition


Wind Chill Definition


Weather Definition


TIME
00:00 Legend Double Dagger 14.1 7.3 63 18 18 24.1 98.84     LegendNANA
01:00 Legend Double Dagger 14.0 7.1 63 18 17 24.1 98.84     Mostly Cloudy
02:00 Legend Double Dagger 13.8 7.4 65 18 17 24.1 98.85     LegendNANA
03:00 Legend Double Dagger 13.0 7.7 70 19 13 24.1 98.82     LegendNANA
04:00 Legend Double Dagger 13.4 8.3 71 19 13 24.1 98.81     Mostly Cloudy
05:00 Legend Double Dagger 12.9 8.6 75 19 13 24.1 98.79     LegendNANA
06:00 Legend Double Dagger 12.5 8.8 78 17 12 24.1 98.80     LegendNANA
07:00 Legend Double Dagger 13.0 9.2 78 18 13 24.1 98.78     Cloudy
08:00 Legend Double Dagger 14.2 9.8 75 18 21 24.1 98.71     LegendNANA
09:00 Legend Double Dagger 15.8 10.9 72 19 16 24.1 98.69     LegendNANA
10:00 Legend Double Dagger 17.7 11.4 66 18 21 24.1 98.60     Cloudy
11:00 Legend Double Dagger 19.8 11.6 59 19 23 24.1 98.55     LegendNANA
12:00 Legend Double Dagger 21.1 11.9 55 18 24 24.1 98.50     LegendNANA
13:00 Legend Double Dagger 22.8 12.0 50 18 29 24.1 98.39 25   Cloudy
14:00 Legend Double Dagger 23.1 11.5 47 19 22 24.1 98.31 25   LegendNANA
15:00 Legend Double Dagger 22.9 11.4 48 19 26 24.1 98.21 25   LegendNANA
16:00 Legend Double Dagger 22.5 12.6 53 19 15 24.1 98.14 25   Mostly Cloudy
17:00 Legend Double Dagger 22.6 12.3 52 19 24 24.1 98.18 25   LegendNANA
18:00 Legend Double Dagger 22.1 13.6 58 20 18 24.1 98.20 25   LegendNANA
19:00 Legend Double Dagger 19.4 16.4 83 21 13 16.1 98.24     Rain Showers
20:00 Legend Double Dagger 18.6 17.1 91 20 12 24.1 98.24     Rain Showers
21:00 Legend Double Dagger 18.8 16.7 88 20 14 24.1 98.20     LegendNANA
22:00 Legend Double Dagger 18.8 16.1 84 20 13 24.1 98.13     Cloudy
23:00 Legend Double Dagger 19.2 16.2 83 21 16 24.1 98.07     LegendNANA

Notes on Data Quality.

Legend

  • E = Estimated
  • M = Missing
  • NA = Not Available
  • ‡ = Partner data that is not subject to review by the National Climate Archives
Date modified: